Date String (YYYY-MM-DD hh:mm:ss) UTC,Instrument flags,Ambient pressure (hPa),Sample flow (lpm),Bypass flow (lpm),Sample temperature (°C),Ambient temperature (°C),ASC tube jacket temperature (°C),LED temperature (°C),Box temperature (°C),Sample RH (%),Span deviation,Mass concentration (μg/m³),Mass concentration (μg/m³),Mass concentration (μg/m³)
DateTimeUTC,F1_M11,P_M11,Q1_M11,Q2_M11,T1_M11,T2_M11,T3_M11,T4_M11,T5_M11,U1_M11,ZSPAN_M11,X0_M11,X2_M11,X1_M11
2022-08-10 17:00:00,,0834.7,5.00,0.00,29.3,27.1,00.0,38.0,31.1,33.0,0000.0,0015.33,0006.80,0005.53
2022-08-10 17:01:00,,0834.7,5.00,0.00,29.2,27.2,00.0,38.0,31.0,33.2,0000.0,0015.17,0006.82,0005.54
2022-08-10 17:02:00,,0834.7,5.00,0.00,29.2,27.4,00.0,38.0,31.0,34.0,0000.0,0015.44,0006.83,0005.55
2022-08-10 17:03:00,,0834.7,4.99,0.00,29.2,27.5,00.0,38.0,31.1,34.1,0000.0,0015.68,0006.81,0005.54
2022-08-10 17:04:00,,0834.7,5.00,0.00,29.2,27.7,00.0,38.0,31.1,33.4,0000.0,0015.32,0006.80,0005.57
2022-08-10 17:05:00,,0834.6,5.00,0.00,29.3,27.9,00.0,38.0,31.2,33.0,0000.0,0015.32,0006.80,0005.59
2022-08-10 17:06:00,,0834.7,5.01,0.00,29.3,28.1,00.0,38.0,31.3,32.9,0000.0,0015.23,0006.79,0005.60
2022-08-10 17:07:00,,0834.7,5.00,0.00,29.3,28.1,00.0,38.0,31.3,32.1,0000.0,0015.05,0006.78,0005.60
2022-08-10 17:08:00,,0834.7,4.99,0.00,29.3,27.5,00.0,38.0,31.1,32.6,0000.0,0015.00,0006.81,0005.60
2022-08-10 17:09:00,,0834.7,5.00,0.00,29.3,27.2,00.0,38.0,31.1,32.2,0000.0,0014.46,0006.84,0005.60
2022-08-10 17:10:00,,0834.7,5.00,0.00,29.2,27.2,00.0,38.0,31.0,32.2,0000.0,0014.72,0006.82,0005.59
2022-08-10 17:11:00,,0834.6,5.00,0.00,29.2,27.3,00.0,38.0,30.9,32.8,0000.0,0014.76,0006.82,0005.59
2022-08-10 17:12:00,,0834.6,5.00,0.00,29.2,27.5,00.0,38.0,31.0,32.1,0000.0,0015.43,0006.86,0005.58
2022-08-10 17:13:00,,0834.6,5.00,0.00,29.2,27.7,00.0,38.0,31.1,32.1,0000.0,0016.31,0006.86,0005.57
2022-08-10 17:14:00,,0834.6,5.01,0.00,29.2,27.8,00.0,38.0,31.2,31.8,0000.0,0016.40,0006.82,0005.56
2022-08-10 17:15:00,,0834.6,5.00,0.00,29.3,28.0,00.0,38.0,31.3,32.0,0000.0,0016.32,0006.84,0005.55
2022-08-10 17:16:00,,0834.7,5.00,0.00,29.3,28.0,00.0,38.0,31.3,31.3,0000.0,0016.01,0006.84,0005.53
2022-08-10 17:17:00,,0834.7,4.99,0.00,29.3,27.5,00.0,38.0,31.1,31.6,0000.0,0016.48,0006.86,0005.52
2022-08-10 17:18:00,,0834.6,5.01,0.00,29.2,27.1,00.0,38.0,31.0,31.7,0000.0,0016.68,0006.90,0005.54
2022-08-10 17:19:00,,0834.6,4.99,0.00,29.2,27.1,00.0,38.0,31.0,32.0,0000.0,0016.72,0006.87,0005.54
2022-08-10 17:20:00,,0834.7,5.00,0.00,29.2,27.2,00.0,38.0,30.9,32.1,0000.0,0017.03,0006.86,0005.54
2022-08-10 17:21:00,,0834.6,5.01,0.00,29.1,27.4,00.0,37.9,31.0,32.8,0000.0,0016.44,0006.89,0005.57
2022-08-10 17:22:00,,0834.6,4.99,0.00,29.2,27.5,00.0,38.0,31.1,32.5,0000.0,0016.80,0006.92,0005.60
2022-08-10 17:23:00,,0834.6,5.01,0.00,29.2,27.7,00.0,38.0,31.1,32.4,0000.0,0016.55,0006.91,0005.61
2022-08-10 17:24:00,,0834.6,5.00,0.00,29.2,27.9,00.0,38.0,31.2,32.9,0000.0,0015.47,0006.93,0005.64
2022-08-10 17:25:00,,0834.6,5.00,0.00,29.3,28.1,00.0,38.0,31.3,33.6,0000.0,0015.38,0006.97,0005.66
2022-08-10 17:26:00,,0834.6,5.00,0.00,29.3,27.8,00.0,38.0,31.2,33.1,0000.0,0015.31,0007.00,0005.68
2022-08-10 17:27:00,,0834.6,5.01,0.00,29.3,27.2,00.0,38.0,31.0,32.9,0000.0,0015.89,0007.07,0005.70
2022-08-10 17:28:00,,0834.6,5.00,0.00,29.2,27.0,00.0,37.9,31.0,33.0,0000.0,0016.81,0007.12,0005.71
2022-08-10 17:29:00,,0834.6,4.99,0.00,29.2,27.1,00.0,37.9,30.9,33.0,0000.0,0017.19,0007.14,0005.72
2022-08-10 17:30:00,,0834.6,5.00,0.00,29.1,27.2,00.0,37.9,30.9,33.1,0000.0,0018.46,0007.24,0005.73
2022-08-10 17:31:00,,0834.6,4.99,0.00,29.1,27.4,00.0,37.9,31.0,34.4,0000.0,0019.13,0007.26,0005.74
2022-08-10 17:32:00,,0834.6,5.01,0.00,29.2,27.6,00.0,37.9,31.1,34.6,0000.0,0019.07,0007.28,0005.75
2022-08-10 17:33:00,,0834.6,5.00,0.00,29.3,27.8,00.0,38.0,31.2,33.8,0000.0,0018.98,0007.27,0005.74
2022-08-10 17:34:00,,0834.6,5.00,0.00,29.4,28.0,00.0,38.0,31.3,33.7,0000.0,0019.01,0007.30,0005.77
2022-08-10 17:35:00,,0834.5,5.00,0.00,29.5,27.8,00.0,38.0,31.2,34.0,0000.0,0019.03,0007.36,0005.80
2022-08-10 17:36:00,,0834.5,5.01,0.00,29.4,27.3,00.0,37.9,31.1,33.9,0000.0,0020.01,0007.42,0005.82
2022-08-10 17:37:00,,0834.5,5.00,0.00,29.4,27.1,00.0,37.9,31.0,34.0,0000.0,0020.55,0007.46,0005.84
2022-08-10 17:38:00,,0834.5,4.99,0.00,29.3,27.1,00.0,38.0,31.0,33.9,0000.0,0020.85,0007.43,0005.84
2022-08-10 17:39:00,,0834.5,5.00,0.00,29.3,27.2,00.0,38.0,30.9,33.7,0000.0,0020.22,0007.44,0005.85
2022-08-10 17:40:00,,0834.5,5.00,0.00,29.3,27.4,00.0,38.0,31.0,33.5,0000.0,0019.27,0007.37,0005.82
2022-08-10 17:41:00,,0834.5,5.00,0.00,29.3,27.6,00.0,38.0,31.1,32.9,0000.0,0018.23,0007.35,0005.81
2022-08-10 17:42:00,,0834.5,5.00,0.00,29.4,27.8,00.0,38.0,31.2,32.9,0000.0,0017.98,0007.34,0005.80
2022-08-10 17:43:00,,0834.4,5.00,0.00,29.4,27.9,00.0,38.0,31.2,32.7,0000.0,0018.48,0007.31,0005.78
2022-08-10 17:44:00,,0834.5,4.99,0.00,29.4,28.0,00.0,38.0,31.3,33.2,0000.0,0018.40,0007.31,0005.77
2022-08-10 17:45:00,,0834.4,5.00,0.00,29.4,27.6,00.0,38.0,31.1,33.8,0000.0,0018.87,0007.27,0005.73
2022-08-10 17:46:00,,0834.4,4.98,0.00,29.4,27.2,00.0,38.0,31.1,33.1,0000.7,0019.37,0007.18,0005.70
2022-08-10 17:47:00,,0834.4,5.01,0.00,29.3,27.1,00.0,38.0,31.0,33.3,0001.2,0018.56,0007.13,0005.66
2022-08-10 17:48:00,,0834.4,5.00,0.00,29.3,27.2,00.0,38.0,30.9,33.0,0000.0,0018.22,0007.10,0005.63
2022-08-10 17:49:00,,0834.4,5.00,0.00,29.3,27.3,00.0,38.0,31.0,32.8,0000.0,0017.37,0007.06,0005.60
2022-08-10 17:50:00,,0834.4,4.99,0.00,29.3,27.5,00.0,38.0,31.0,32.8,0000.0,0017.71,0007.03,0005.58
2022-08-10 17:51:00,,0834.4,5.00,0.00,29.3,27.7,00.0,38.0,31.1,31.9,0000.0,0018.57,0007.05,0005.58
2022-08-10 17:52:00,,0834.4,5.01,0.00,29.3,27.9,00.0,38.0,31.2,32.5,0000.0,0019.19,0007.06,0005.56
2022-08-10 17:53:00,,0834.3,5.00,0.00,29.4,28.0,00.0,38.0,31.3,32.6,0000.0,0019.18,0007.02,0005.55
2022-08-10 17:54:00,,0834.3,5.01,0.00,29.4,27.6,00.0,38.0,31.2,32.8,0000.0,0018.87,0007.04,0005.54
2022-08-10 17:55:00,,0834.3,4.99,0.00,29.3,27.1,00.0,38.0,31.0,33.3,0000.0,0018.65,0007.04,0005.54
2022-08-10 17:56:00,,0834.3,5.00,0.00,29.3,27.0,00.0,38.0,31.0,33.1,0000.0,0018.22,0007.07,0005.53
2022-08-10 17:57:00,,0834.3,5.01,0.00,29.2,27.1,00.0,38.0,30.9,33.1,0000.0,0017.98,0007.10,0005.52
2022-08-10 17:58:00,,0834.3,4.99,0.00,29.2,27.3,00.0,38.0,30.9,32.5,0000.0,0018.54,0007.09,0005.52
2022-08-10 17:59:00,,0834.3,5.01,0.00,29.2,27.4,00.0,37.9,31.0,33.3,0000.0,0018.38,0007.01,0005.50
